SCP
-0 -0 -0 -0 -0 -0 0 -0 -0 -0 -0 -0 -0 0 0 0 0 0 0 0 0 0 0 0 0 0 0 0 0 0 0 0 0 0 0 0 0 0 0 0 0 0 0 0 0
-0 -0 -0 -0 -0 0 -0 0 -0 0 -0 -0 0 0 0 0 -0 0 0 0 0 0 0 0 0 0 0 0 -0 0 0 0 0 0 0 0 0 0 0 0 0 0 0 0 0
-0 -0 -0 -0 -0 0 -0 -0 0 0 -0 -0 -0 0 0 0 0 0 0 0 0 0 0 0 0 0 0 0 -0 -0 0 0 0 0 0 0 0 0 0 0 0 0 0 0 0
-0 -0 -0 0 0 0 0 0 0 -0 -0 0 -0 0 0 -0 0 0 0 -0 -0 0 0 0 0 0 0 0 0 -0 0 0 0 0 0 0 0 0 0 0 0 0 0 0 0
-0 0 0 0 0 0 0 0 0 -0 -0 0 0 0 0 0 0 0 0 0 0 0 0 0 0 0 -0 0 0 0 0 0 -0 -0 0 0 -0 0 0 0 0 0 0 0 0
0 -0 -0 0 0 0 0 0 -0 -0 -0 -0 0 0 0 0 0 0 0 0 0 0 0 0 0 0 0 0 -0 -0 -0 0 0 0 -0 -0 -0 -0 0 -0 0 0 0 0 0
-0 0 -0 -0 -0 0 0 -0 -0 0 -0 0 0 0 0 -0 0 -0 -0 0 0 0 0 -0 0 0 0 0 -0 0 -0 -0 -0 0 -0 0 0 0 -0 0 -0 0 0 0 0
-0 -0 -0 -0 -0 -0 -0 -0 0 0 0 0 0 0 0 -0 0 0 0 0 0 0 0 0 0 0 -0 0 0 0 0 0 0 0 0 0 -0 -0 -0 0 0 0 0 0 0
-0 0 0 -0 -0 0 0 -0 -0 0 0 0 0 0 0 0 0 0 0 0 0 0 0 0 0 0 0 0 0 0 0 0 -0 -0 -0 -0 -0 0 0 0 -0 -0 0 0 0
-0 -0 0 0 -0 0 0 0 0 0 0 0 0 0 0 0 0 0 0 0 0 0 0 0 0 0 0 0 0 0 0 0 0 0 0 0 -0 0 0 0 0 -0 0 0 0
-0 -0 0 0 0 -0 0 0 0 0 0 0 0 0 0 0 0 0 0 0 0 0 0 0 0 0 0 0 0 0 0 0 0 0 -0 0 -0 0 0 0 0 0 0 -0 -0
-0 0 0 0 0 0 0 0 0 0 0 0 0 0 0 0 0 0 0 0 0 0 0 0 0 0 0 0 0 0 0 0 0 0 0 -0 -0 0 0 0 0 -0 -0 -0 -0
0 0 -0 0 0 0 0 0 0 0 0 0 0 0 0 0 0 0 0 0 0 0 0 0 0 0 0 0 0 0 0 0 0 0 0 0 0 0 -0 -0 0 0 0 0 0
0 0 0 -0 0 0 0 0 0 0 0 0 0 0 0 0 0 0 0 0 0 0 0 0 0 0 0 0 0 0 0 0 0 0 0 0 0 0 -0 0 0 0 0 0 0
0 0 0 0 0 0 0 0 0 0 0 0 0 0 0 0 0 0 0 0 0 0 0 0 0 0 0 0 0 0 0 0 0 0 0 0 0 0 0 0 0 0 0 0 0
0 0 0 0 0 0 0 0 0 0 0 0 0 0 0 0 0 0 0 0 0 0 0 0 0 0 0 0 0 0 0 0 0 0 0 0 0 0 0 -0 -0 0 0 0 0
0 0 0 0 0 0 0 0 0 0 0 0 0 0 0 0 0 0 0 0 0 0 0 0 0 0 0 0 0 0 0 0 0 0 0 0 0 -0 0 0 0 -0 -0 0 -0
0 0 0 0 0 0 0 0 0 0 0 0 0 0 0 0 0 0 0 0 0 0 0 0 0 0 0 0 0 0 0 0 0 0 0 0 0 0 0 0 0 0 0 0 0
0 0 0 0 0 0 0 0 0 0 0 0 0 0 0 0 0 0 0 0 0 0 0 0 0 0 0 0 0 0 0 0 0 0 0 0 0 -0 0 0 0 0 0 0 0
0 0 0 0 0 0 0 0 0 0 0 0 0 0 0 0 0 0 0 0 0 0 0 0 0 0 0 0 0 0 0 0 0 0 0 0 0 0 0 0 0 0 0 0 0
0 0 0 0 0 0 0 0 0 0 0 0 0 0 0 0 0 0 0 0 0 0 0 0 0 0 0 0 0 0 0 0 0 0 0 0 0 0 0 0 0 0 0 0 0
0 0 0 0 0 0 0 0 0 0 0 0 0 0 0 0 0 0 0 0 0 0 0 0 0 0 0 0 0 0 0 0 0 0 0 0 0 0 0 0 0 0 0 0 0
0 0 0 0 0 0 0 0 0 0 0 0 0 0 0 0 0 0 0 0 0 0 0 0 0 0 0 0 0 0 0 0 0 0 0 0 0 0 0 0 0 0 0 0 0
0 0 0 0 0 0 0 0 0 0 0 0 0 0 0 0 0 0 0 0 0 0 0 0 0 0 0 0 0 0 0 0 0 0 0 0 0 0 0 0 0 0 0 0 0
0 0 0 0 0 0 0 0 0 0 0 0 0 0 0 0 0 0 0 0 0 0 0 0 0 0 0 0 0 0 0 0 0 0 0 0 0 0 0 0 0 0 0 0 0
0 0 0 0 0 0 0 0 0 0 0 0 0 0 0 0 0 0 0 0 0 0 0 0 0 0 0 0 0 0 0 0 0 0 0 0 0 0 0 0 0 0 0 0 0
0 0 0 0 0 0 0 0 0 0 0 0 0 0 0 0 0 0 0 0 0 0 0 0 0 0 0 0 0 0 0 0 0 0 0 0 -0 0 0 0 0 0 0 0 0
Wind_Speed_500mb
28 29 31 36 41 40 39 34 29 25 28 32 12 27 27 61 64 68 85 54 55 35 19 9 13 2 20 34 28 10 8 9 7 5 9 18 8 23 25 33 38 18 19 13 9
21 23 26 27 31 34 39 44 41 31 24 34 27 23 9 27 70 90 64 54 53 42 16 8 25 17 29 26 21 20 10 11 9 6 9 20 13 10 13 26 31 22 26 21 14
18 20 22 24 26 27 28 35 43 40 29 38 37 8 25 12 40 75 67 60 52 43 14 15 25 46 42 34 33 18 11 11 24 32 30 19 18 9 19 18 19 19 24 28 30
15 18 19 21 26 29 29 30 33 40 29 26 39 31 4 5 13 60 66 61 45 48 33 24 42 34 20 23 31 17 41 25 10 16 14 10 13 21 31 14 19 21 20 19 27
11 14 15 13 13 16 20 24 21 28 37 32 24 23 45 66 38 44 58 59 62 52 71 85 91 46 19 21 45 26 25 41 47 51 45 40 36 19 29 24 25 26 30 29 25
8 9 11 10 9 13 16 22 20 16 21 39 32 24 48 63 36 33 43 49 53 68 81 88 78 72 48 29 27 33 40 23 23 27 24 19 20 5 15 25 22 21 23 28 31
7 6 7 11 11 14 16 17 10 13 10 19 17 33 64 34 25 25 34 47 52 51 56 39 28 23 34 31 27 33 16 15 6 4 7 5 14 10 10 5 15 12 12 17 24
5 4 5 4 3 10 13 19 17 3 13 10 4 19 25 23 21 10 16 24 33 41 55 59 61 71 25 47 13 1 1 6 8 1 5 3 4 6 5 5 8 10 7 13 16
7 2 4 5 5 9 19 16 24 5 7 10 13 8 12 12 12 16 13 21 27 39 34 20 34 27 14 8 9 15 6 10 5 14 2 6 5 16 13 8 12 7 4 5 6
6 2 5 12 5 14 20 3 21 11 2 3 7 10 10 8 11 15 13 5 4 5 12 18 20 10 10 7 4 6 9 7 8 13 15 9 5 16 20 19 18 10 3 1 1
7 2 7 7 7 16 17 2 6 4 28 23 15 17 11 14 17 9 11 13 11 15 12 24 20 12 15 11 9 16 12 10 4 6 7 8 3 14 20 24 26 20 15 12 8
10 8 8 13 17 17 6 5 10 7 17 16 15 16 14 7 5 15 7 5 12 7 8 13 13 9 5 13 18 15 14 6 2 5 6 6 12 15 23 21 34 27 27 25 20
8 8 9 12 13 7 6 10 9 4 6 5 9 6 6 10 10 15 7 15 17 13 13 13 0 5 7 12 11 10 9 3 5 5 7 4 11 12 16 36 36 41 39 33 29
11 11 9 7 7 6 6 5 6 3 9 3 1 3 6 3 8 14 10 5 9 9 8 11 8 5 7 8 4 7 5 6 8 6 1 8 8 11 12 17 35 53 52 50 42
14 14 11 5 4 6 5 1 5 6 8 3 1 1 7 5 4 9 12 9 9 7 4 0 5 8 8 2 2 6 4 6 4 6 7 2 6 13 5 15 29 54 66 61 54
16 16 12 9 9 7 6 2 3 13 12 1 1 1 3 6 5 3 4 10 13 10 15 6 3 4 2 2 2 4 5 9 7 5 6 8 8 10 12 19 10 51 75 72 66
16 15 13 11 8 11 10 5 11 9 7 7 6 2 3 3 3 5 5 2 5 8 4 2 0 0 3 6 4 6 7 6 10 8 9 3 4 22 14 15 24 44 76 78 74
20 17 15 14 11 12 18 10 8 7 13 4 4 4 6 7 1 3 3 5 6 7 6 10 10 10 5 5 8 4 8 8 10 4 8 8 13 12 12 24 34 30 52 70 76
25 22 20 17 16 18 16 6 18 16 13 20 6 5 6 3 7 4 12 10 14 19 14 9 4 2 2 2 4 7 5 6 14 2 6 6 15 19 12 15 27 42 39 59 77
26 23 30 23 22 25 7 15 11 9 18 8 20 15 15 11 9 11 11 9 8 13 2 10 5 1 1 1 3 3 10 7 6 1 9 9 12 14 11 21 18 32 56 60 66
24 11 21 27 31 22 8 16 14 21 24 16 20 12 13 16 17 13 10 4 12 11 7 8 7 2 3 15 16 5 5 5 6 8 10 4 13 16 20 21 31 51 71 66 70
17 6 20 34 16 5 10 16 14 16 35 16 5 11 21 20 18 13 22 16 33 42 19 14 10 9 13 1 3 4 11 12 9 12 7 5 17 10 18 20 43 59 72 69 68
13 16 26 46 8 7 8 9 13 12 14 15 15 16 7 17 2 18 13 4 39 29 20 18 5 3 13 2 5 11 12 8 7 6 15 12 16 4 13 24 38 47 54 63 70
13 3 15 44 15 11 9 11 10 24 10 16 8 11 7 10 5 10 11 6 29 26 13 28 7 16 24 17 11 13 15 26 14 8 9 29 45 19 17 22 44 57 59 57 65
25 16 15 8 16 22 15 11 10 10 21 23 7 14 19 12 4 11 6 6 7 18 15 12 17 13 11 6 9 11 14 34 37 46 26 46 46 50 45 31 66 68 64 61 63
22 10 15 5 7 24 23 14 23 7 18 11 14 24 27 29 29 26 16 11 15 9 14 8 8 6 10 2 10 19 27 28 50 30 45 45 61 31 33 43 57 75 70 70 73
33 20 10 11 10 6 12 15 16 14 21 44 31 18 14 32 23 21 24 14 24 28 26 18 13 8 29 4 11 27 44 50 40 28 42 39 80 13 31 45 64 80 81 82 87
Wind_Direction_500mb
66 64 60 63 71 64 58 57 47 42 36 34 128 105 70 41 39 38 31 357 356 3 344 341 335 349 50 55 49 60 65 59 46 95 147 154 102 68 71 66 63 62 68 57 48
67 61 59 65 62 58 59 57 45 37 43 27 17 205 160 42 30 38 18 18 9 15 23 56 58 86 62 29 33 49 63 41 6 51 101 96 97 102 85 67 56 50 79 87 105
64 61 65 68 60 63 64 51 41 45 55 38 29 60 223 308 29 16 22 24 20 16 359 76 62 82 52 50 19 35 82 105 69 87 95 91 74 80 104 62 78 56 65 84 91
67 62 72 77 70 76 63 39 45 45 49 44 51 56 34 344 62 25 29 31 42 46 70 103 84 67 71 59 43 97 56 67 64 50 80 58 82 70 65 92 110 107 91 102 102
71 76 78 85 72 45 28 30 46 47 51 54 56 84 81 76 56 40 36 46 58 66 83 90 82 76 83 88 64 61 76 76 90 83 78 92 75 77 72 104 96 95 97 92 95
58 80 67 76 72 48 39 35 51 60 51 57 64 81 81 74 58 47 43 53 56 72 79 86 90 91 73 54 54 113 100 98 82 85 92 74 44 53 97 104 72 65 70 72 71
60 115 91 84 80 49 38 28 23 58 47 73 67 56 71 83 66 47 43 51 58 62 75 77 94 103 98 96 101 119 96 112 71 97 156 1 33 19 153 37 70 53 66 86 98
47 135 161 135 78 34 37 10 332 211 34 42 7 50 76 80 74 71 47 60 54 67 77 83 86 86 91 118 122 61 218 51 6 266 67 260 282 282 211 33 10 3 44 80 99
4 340 204 192 125 41 0 3 24 168 46 42 40 85 76 83 66 54 94 82 61 81 69 54 46 76 94 113 80 28 51 19 338 17 3 16 205 215 202 252 304 338 26 65 103
9 349 164 150 117 0 355 348 40 41 249 355 37 86 71 60 60 70 92 125 126 138 353 45 55 60 22 54 109 122 96 37 21 343 30 48 101 184 220 255 265 272 248 150 198
348 324 189 217 311 341 345 324 321 7 66 74 62 86 101 81 64 69 109 83 86 50 39 30 62 32 331 1 93 109 96 103 319 309 44 15 321 241 242 245 254 247 236 228 224
342 325 278 277 305 322 350 71 60 119 76 66 68 73 66 74 82 59 80 86 55 50 1 41 51 319 26 46 68 76 99 65 48 28 65 321 277 250 242 248 242 238 232 223 215
325 321 306 296 305 320 117 88 88 102 83 55 48 36 58 58 52 17 63 90 86 52 29 99 167 24 81 41 59 31 95 149 135 47 80 15 284 238 239 233 235 235 238 235 226
306 315 312 299 285 202 137 69 30 355 71 277 9 19 353 84 52 42 66 91 54 140 91 78 355 76 70 73 1 66 10 74 104 54 193 75 276 263 226 245 234 236 232 231 226
305 302 312 296 282 205 189 346 16 9 12 277 338 246 54 86 119 29 38 65 99 97 122 19 28 29 48 19 340 140 85 52 73 87 67 3 71 266 95 252 239 235 232 231 225
292 297 296 293 253 252 203 213 9 43 262 286 246 175 84 46 54 62 51 72 116 86 45 103 69 79 71 3 353 135 87 55 54 63 21 228 133 267 194 215 229 226 230 228 225
274 277 278 282 259 232 205 165 35 133 336 266 239 156 92 109 47 40 40 71 170 94 202 340 255 125 145 103 12 65 56 350 356 7 222 164 55 248 241 227 218 214 224 225 224
273 271 263 257 250 216 180 54 125 231 215 97 79 63 200 146 208 76 62 274 226 94 98 157 302 175 166 159 179 157 145 157 216 235 266 352 237 249 219 234 231 230 232 227 225
273 270 265 251 231 202 178 83 204 198 155 150 99 169 265 193 137 135 202 221 210 180 162 131 253 3 31 106 135 196 183 138 100 71 36 229 279 290 230 256 223 224 229 227 226
264 268 259 238 222 196 104 229 229 195 133 154 182 155 197 197 161 182 189 198 190 188 106 193 76 264 150 61 23 186 152 74 1 266 287 280 283 242 250 229 221 222 223 224 224
258 241 236 212 199 180 177 224 241 215 181 164 203 156 199 181 186 202 214 235 166 142 124 137 104 278 42 203 180 153 207 67 127 149 193 257 255 217 223 204 208 221 223 223 221
220 238 215 189 172 193 172 194 213 199 208 236 207 192 184 173 185 219 213 221 176 153 166 188 143 174 199 99 54 244 218 166 140 230 228 179 263 252 230 226 218 226 228 228 227
216 222 200 187 182 241 269 249 224 160 195 189 224 209 176 173 208 202 202 205 179 166 165 181 233 23 332 12 6 217 199 170 94 63 200 158 258 263 244 242 236 239 236 235 231
202 234 192 199 229 186 172 232 228 211 221 190 197 135 117 196 240 236 226 183 194 196 174 159 160 181 231 216 133 183 198 189 154 145 198 221 251 259 244 231 236 235 240 237 234
217 230 195 197 237 211 187 163 165 209 222 198 229 209 177 193 196 227 221 162 198 208 183 166 209 189 241 207 194 212 193 185 205 219 202 254 231 241 236 223 229 232 238 236 234
237 214 194 269 233 198 209 208 216 233 158 237 228 208 212 219 206 231 162 184 195 154 162 213 235 125 272 268 247 250 226 198 221 230 247 265 271 246 257 241 238 242 236 236 234
240 239 229 211 177 155 210 208 226 189 254 245 224 231 213 235 261 280 232 228 203 162 187 161 148 123 260 55 327 279 212 212 220 207 217 231 247 224 239 228 231 236 236 238 243
Wind_Speed_850mb
28 29 31 36 41 40 39 34 29 25 28 32 12 27 27 61 64 68 85 54 55 35 19 9 13 2 20 34 28 10 8 9 7 5 9 18 8 23 25 33 38 18 19 13 9
21 23 26 27 31 34 39 44 41 31 24 34 27 23 9 27 70 90 64 54 53 42 16 8 25 17 29 26 21 20 10 11 9 6 9 20 13 10 13 26 31 22 26 21 14
18 20 22 24 26 27 28 35 43 40 29 38 37 8 25 12 40 75 67 60 52 43 14 15 25 46 42 34 33 18 11 11 24 32 30 19 18 9 19 18 19 19 24 28 30
15 18 19 21 26 29 29 30 33 40 29 26 39 31 4 5 13 60 66 61 45 48 33 24 42 34 20 23 31 17 41 25 10 16 14 10 13 21 31 14 19 21 20 19 27
11 14 15 13 13 16 20 24 21 28 37 32 24 23 45 66 38 44 58 59 62 52 71 85 91 46 19 21 45 26 25 41 47 51 45 40 36 19 29 24 25 26 30 29 25
8 9 11 10 9 13 16 22 20 16 21 39 32 24 48 63 36 33 43 49 53 68 81 88 78 72 48 29 27 33 40 23 23 27 24 19 20 5 15 25 22 21 23 28 31
7 6 7 11 11 14 16 17 10 13 10 19 17 33 64 34 25 25 34 47 52 51 56 39 28 23 34 31 27 33 16 15 6 4 7 5 14 10 10 5 15 12 12 17 24
5 4 5 4 3 10 13 19 17 3 13 10 4 19 25 23 21 10 16 24 33 41 55 59 61 71 25 47 13 1 1 6 8 1 5 3 4 6 5 5 8 10 7 13 16
7 2 4 5 5 9 19 16 24 5 7 10 13 8 12 12 12 16 13 21 27 39 34 20 34 27 14 8 9 15 6 10 5 14 2 6 5 16 13 8 12 7 4 5 6
6 2 5 12 5 14 20 3 21 11 2 3 7 10 10 8 11 15 13 5 4 5 12 18 20 10 10 7 4 6 9 7 8 13 15 9 5 16 20 19 18 10 3 1 1
7 2 7 7 7 16 17 2 6 4 28 23 15 17 11 14 17 9 11 13 11 15 12 24 20 12 15 11 9 16 12 10 4 6 7 8 3 14 20 24 26 20 15 12 8
10 8 8 13 17 17 6 5 10 7 17 16 15 16 14 7 5 15 7 5 12 7 8 13 13 9 5 13 18 15 14 6 2 5 6 6 12 15 23 21 34 27 27 25 20
8 8 9 12 13 7 6 10 9 4 6 5 9 6 6 10 10 15 7 15 17 13 13 13 0 5 7 12 11 10 9 3 5 5 7 4 11 12 16 36 36 41 39 33 29
11 11 9 7 7 6 6 5 6 3 9 3 1 3 6 3 8 14 10 5 9 9 8 11 8 5 7 8 4 7 5 6 8 6 1 8 8 11 12 17 35 53 52 50 42
14 14 11 5 4 6 5 1 5 6 8 3 1 1 7 5 4 9 12 9 9 7 4 0 5 8 8 2 2 6 4 6 4 6 7 2 6 13 5 15 29 54 66 61 54
16 16 12 9 9 7 6 2 3 13 12 1 1 1 3 6 5 3 4 10 13 10 15 6 3 4 2 2 2 4 5 9 7 5 6 8 8 10 12 19 10 51 75 72 66
16 15 13 11 8 11 10 5 11 9 7 7 6 2 3 3 3 5 5 2 5 8 4 2 0 0 3 6 4 6 7 6 10 8 9 3 4 22 14 15 24 44 76 78 74
20 17 15 14 11 12 18 10 8 7 13 4 4 4 6 7 1 3 3 5 6 7 6 10 10 10 5 5 8 4 8 8 10 4 8 8 13 12 12 24 34 30 52 70 76
25 22 20 17 16 18 16 6 18 16 13 20 6 5 6 3 7 4 12 10 14 19 14 9 4 2 2 2 4 7 5 6 14 2 6 6 15 19 12 15 27 42 39 59 77
26 23 30 23 22 25 7 15 11 9 18 8 20 15 15 11 9 11 11 9 8 13 2 10 5 1 1 1 3 3 10 7 6 1 9 9 12 14 11 21 18 32 56 60 66
24 11 21 27 31 22 8 16 14 21 24 16 20 12 13 16 17 13 10 4 12 11 7 8 7 2 3 15 16 5 5 5 6 8 10 4 13 16 20 21 31 51 71 66 70
17 6 20 34 16 5 10 16 14 16 35 16 5 11 21 20 18 13 22 16 33 42 19 14 10 9 13 1 3 4 11 12 9 12 7 5 17 10 18 20 43 59 72 69 68
13 16 26 46 8 7 8 9 13 12 14 15 15 16 7 17 2 18 13 4 39 29 20 18 5 3 13 2 5 11 12 8 7 6 15 12 16 4 13 24 38 47 54 63 70
13 3 15 44 15 11 9 11 10 24 10 16 8 11 7 10 5 10 11 6 29 26 13 28 7 16 24 17 11 13 15 26 14 8 9 29 45 19 17 22 44 57 59 57 65
25 16 15 8 16 22 15 11 10 10 21 23 7 14 19 12 4 11 6 6 7 18 15 12 17 13 11 6 9 11 14 34 37 46 26 46 46 50 45 31 66 68 64 61 63
22 10 15 5 7 24 23 14 23 7 18 11 14 24 27 29 29 26 16 11 15 9 14 8 8 6 10 2 10 19 27 28 50 30 45 45 61 31 33 43 57 75 70 70 73
33 20 10 11 10 6 12 15 16 14 21 44 31 18 14 32 23 21 24 14 24 28 26 18 13 8 29 4 11 27 44 50 40 28 42 39 80 13 31 45 64 80 81 82 87
Wind_Direction_850mb
66 64 60 63 71 64 58 57 47 42 36 34 128 105 70 41 39 38 31 357 356 3 344 341 335 349 50 55 49 60 65 59 46 95 147 154 102 68 71 66 63 62 68 57 48
67 61 59 65 62 58 59 57 45 37 43 27 17 205 160 42 30 38 18 18 9 15 23 56 58 86 62 29 33 49 63 41 6 51 101 96 97 102 85 67 56 50 79 87 105
64 61 65 68 60 63 64 51 41 45 55 38 29 60 223 308 29 16 22 24 20 16 359 76 62 82 52 50 19 35 82 105 69 87 95 91 74 80 104 62 78 56 65 84 91
67 62 72 77 70 76 63 39 45 45 49 44 51 56 34 344 62 25 29 31 42 46 70 103 84 67 71 59 43 97 56 67 64 50 80 58 82 70 65 92 110 107 91 102 102
71 76 78 85 72 45 28 30 46 47 51 54 56 84 81 76 56 40 36 46 58 66 83 90 82 76 83 88 64 61 76 76 90 83 78 92 75 77 72 104 96 95 97 92 95
58 80 67 76 72 48 39 35 51 60 51 57 64 81 81 74 58 47 43 53 56 72 79 86 90 91 73 54 54 113 100 98 82 85 92 74 44 53 97 104 72 65 70 72 71
60 115 91 84 80 49 38 28 23 58 47 73 67 56 71 83 66 47 43 51 58 62 75 77 94 103 98 96 101 119 96 112 71 97 156 1 33 19 153 37 70 53 66 86 98
47 135 161 135 78 34 37 10 332 211 34 42 7 50 76 80 74 71 47 60 54 67 77 83 86 86 91 118 122 61 218 51 6 266 67 260 282 282 211 33 10 3 44 80 99
4 340 204 192 125 41 0 3 24 168 46 42 40 85 76 83 66 54 94 82 61 81 69 54 46 76 94 113 80 28 51 19 338 17 3 16 205 215 202 252 304 338 26 65 103
9 349 164 150 117 0 355 348 40 41 249 355 37 86 71 60 60 70 92 125 126 138 353 45 55 60 22 54 109 122 96 37 21 343 30 48 101 184 220 255 265 272 248 150 198
348 324 189 217 311 341 345 324 321 7 66 74 62 86 101 81 64 69 109 83 86 50 39 30 62 32 331 1 93 109 96 103 319 309 44 15 321 241 242 245 254 247 236 228 224
342 325 278 277 305 322 350 71 60 119 76 66 68 73 66 74 82 59 80 86 55 50 1 41 51 319 26 46 68 76 99 65 48 28 65 321 277 250 242 248 242 238 232 223 215
325 321 306 296 305 320 117 88 88 102 83 55 48 36 58 58 52 17 63 90 86 52 29 99 167 24 81 41 59 31 95 149 135 47 80 15 284 238 239 233 235 235 238 235 226
306 315 312 299 285 202 137 69 30 355 71 277 9 19 353 84 52 42 66 91 54 140 91 78 355 76 70 73 1 66 10 74 104 54 193 75 276 263 226 245 234 236 232 231 226
305 302 312 296 282 205 189 346 16 9 12 277 338 246 54 86 119 29 38 65 99 97 122 19 28 29 48 19 340 140 85 52 73 87 67 3 71 266 95 252 239 235 232 231 225
292 297 296 293 253 252 203 213 9 43 262 286 246 175 84 46 54 62 51 72 116 86 45 103 69 79 71 3 353 135 87 55 54 63 21 228 133 267 194 215 229 226 230 228 225
274 277 278 282 259 232 205 165 35 133 336 266 239 156 92 109 47 40 40 71 170 94 202 340 255 125 145 103 12 65 56 350 356 7 222 164 55 248 241 227 218 214 224 225 224
273 271 263 257 250 216 180 54 125 231 215 97 79 63 200 146 208 76 62 274 226 94 98 157 302 175 166 159 179 157 145 157 216 235 266 352 237 249 219 234 231 230 232 227 225
273 270 265 251 231 202 178 83 204 198 155 150 99 169 265 193 137 135 202 221 210 180 162 131 253 3 31 106 135 196 183 138 100 71 36 229 279 290 230 256 223 224 229 227 226
264 268 259 238 222 196 104 229 229 195 133 154 182 155 197 197 161 182 189 198 190 188 106 193 76 264 150 61 23 186 152 74 1 266 287 280 283 242 250 229 221 222 223 224 224
258 241 236 212 199 180 177 224 241 215 181 164 203 156 199 181 186 202 214 235 166 142 124 137 104 278 42 203 180 153 207 67 127 149 193 257 255 217 223 204 208 221 223 223 221
220 238 215 189 172 193 172 194 213 199 208 236 207 192 184 173 185 219 213 221 176 153 166 188 143 174 199 99 54 244 218 166 140 230 228 179 263 252 230 226 218 226 228 228 227
216 222 200 187 182 241 269 249 224 160 195 189 224 209 176 173 208 202 202 205 179 166 165 181 233 23 332 12 6 217 199 170 94 63 200 158 258 263 244 242 236 239 236 235 231
202 234 192 199 229 186 172 232 228 211 221 190 197 135 117 196 240 236 226 183 194 196 174 159 160 181 231 216 133 183 198 189 154 145 198 221 251 259 244 231 236 235 240 237 234
217 230 195 197 237 211 187 163 165 209 222 198 229 209 177 193 196 227 221 162 198 208 183 166 209 189 241 207 194 212 193 185 205 219 202 254 231 241 236 223 229 232 238 236 234
237 214 194 269 233 198 209 208 216 233 158 237 228 208 212 219 206 231 162 184 195 154 162 213 235 125 272 268 247 250 226 198 221 230 247 265 271 246 257 241 238 242 236 236 234
240 239 229 211 177 155 210 208 226 189 254 245 224 231 213 235 261 280 232 228 203 162 187 161 148 123 260 55 327 279 212 212 220 207 217 231 247 224 239 228 231 236 236 238 243